Volver al catálogo

GUANGCHUAN 02

ActivoComunicacionesVLEO
NORAD 62112·PAYLOAD·🇨🇳 China

Lanzado Nov 27, 2024 desde Jiuquan Satellite Launch Center

Loading…

Próximos Pases (próximas 24 horas)

TLE

ActualizadoSource: Space-Track

Época: Sep 14, 2026, 13:21 UTC

1 62112U 24221B   26257.55645116  .00002040  00000-0  12606-3 0  9992
2 62112  49.9417  86.8723 0005953 347.1050  12.9748 15.14332095 99725

Sigue GUANGCHUAN 02 en tiempo real con AllMySat

Download on the App Store